1514116800.22,37283,9.31,73320.3,-2.55,-3.19,-3.19,0,*5F
1514116801.43,37284,9.31,73330.0,-2.55,-3.19,-3.15,0,*54
1514116802.65,37285,9.31,73316.3,-2.55,-3.19,-3.19,0,*59
1514116803.84,37286,9.25,73302.8,-2.53,-3.15,-3.15,0,*5C
1514116805.06,37287,9.31,73316.8,-2.55,-3.15,-3.19,0,*57
1514116806.27,37288,9.31,73328.3,-2.55,-3.19,-3.15,0,*58
1514116807.47,37289,9.31,73328.5,-2.53,-3.15,-3.19,0,*5F
1514116808.68,37290,9.25,73292.3,-2.55,-3.19,-3.19,0,*5D
1514116809.9,37291,9.31,73296.8,-2.55,-3.19,-3.19,0,*5C
1514116811.11,37292,9.31,73286.0,-2.55,-3.19,-3.19,0,*5F
1514116812.3,37293,9.31,73282.0,-2.53,-3.19,-3.19,0,*58
1514116813.52,37294,9.31,73296.3,-2.55,-3.19,-3.15,0,*55
1514116814.72,37295,9.31,73308.0,-2.53,-3.27,-3.19,0,*53
1514116815.93,37296,9.31,73302.3,-2.55,-3.19,-3.15,0,*57
1514116817.15,37297,9.31,73274.8,-2.55,-3.19,-3.15,0,*56
1514116818.36,37298,9.25,73266.8,-2.55,-3.19,-3.19,0,*55
1514116819.56,37299,9.31,73274.5,-2.53,-3.15,-3.15,0,*52
1514116820.75,37300,9.31,73272.3,-2.53,-3.19,-3.19,0,*53
1514116821.96,37301,9.31,73262.8,-2.55,-3.19,-3.19,0,*54
1514116823.18,37302,9.31,73276.5,-2.55,-3.19,-3.15,0,*5B
1514116824.39,37303,9.31,73294.3,-2.55,-3.19,-3.19,0,*56
1514116825.61,37304,9.31,73314.8,-2.55,-3.27,-3.19,0,*5C
1514116826.83,37305,9.31,73318.5,-2.55,-3.27,-3.15,0,*51
1514116828.05,37306,9.31,73310.8,-2.55,-3.27,-3.15,0,*52
1514116829.27,37307,9.31,73296.0,-2.55,-3.19,-3.15,0,*5E
1514116830.45,37308,9.31,73270.8,-2.57,-3.23,-3.23,0,*5F
1514116831.65,37309,9.31,73258.3,-2.53,-3.27,-3.19,0,*57
1514116832.83,37310,9.31,73248.8,-2.57,-3.19,-3.23,0,*5F
1514116834.05,37311,9.31,73256.8,-2.55,-3.15,-3.15,0,*55
1514116835.27,37312,9.31,73256.8,-2.55,-3.27,-3.19,0,*5B
1514116836.48,37313,9.31,73268.8,-2.55,-3.19,-3.19,0,*57
1514116837.7,37314,9.31,73290.8,-2.55,-3.19,-3.19,0,*50
1514116838.91,37315,9.31,73296.5,-2.55,-3.19,-3.19,0,*51
1514116840.13,37316,9.31,73290.8,-2.55,-3.15,-3.19,0,*5E
1514116841.35,37317,9.31,73294.0,-2.55,-3.19,-3.19,0,*53
1514116842.53,37318,9.31,73292.0,-2.57,-3.23,-3.23,0,*5E
1514116843.71,37319,9.31,73296.0,-2.57,-3.23,-3.23,0,*5F
1514116844.89,37320,9.31,73290.0,-2.57,-3.23,-3.23,0,*55
1514116846.07,37321,9.31,73286.0,-2.57,-3.23,-3.23,0,*54
1514116847.29,37322,9.31,73298.0,-2.55,-3.27,-3.15,0,*54
1514116848.48,37323,9.31,73306.0,-2.57,-3.23,-3.19,0,*5F
1514116849.66,37324,9.31,73306.0,-2.57,-3.23,-3.23,0,*51
1514116850.88,37325,9.31,73314.3,-2.55,-3.15,-3.15,0,*52
1514116852.09,37326,9.25,73312.0,-2.55,-3.19,-3.15,0,*5D
1514116853.31,37327,9.25,73282.8,-2.55,-3.19,-3.19,0,*50
1514116854.52,37328,9.31,73294.3,-2.55,-3.19,-3.19,0,*5F
1514116855.74,37329,9.31,73304.5,-2.55,-3.15,-3.19,0,*52
1514116856.96,37330,9.31,73290.8,-2.55,-3.31,-3.19,0,*5C
1514116858.15,37331,9.31,73284.3,-2.57,-3.31,-3.19,0,*5F
1514116859.37,37332,9.31,73286.0,-2.55,-3.19,-3.15,0,*58
1514116860.58,37333,9.31,73276.0,-2.55,-3.19,-3.19,0,*55
1514116861.77,37334,9.31,73270.3,-2.57,-3.31,-3.19,0,*5A
1514116862.96,37335,9.31,73262.3,-2.57,-3.19,-3.23,0,*58
1514116864.14,37336,9.31,73256.5,-2.57,-3.23,-3.23,0,*52
1514116865.33,37337,9.31,73260.5,-2.57,-3.23,-3.19,0,*5A
1514116866.51,37338,9.31,73276.3,-2.57,-3.19,-3.23,0,*55
1514116867.69,37339,9.31,73288.8,-2.57,-3.23,-3.23,0,*5D
1514116868.91,37340,9.31,73304.8,-2.55,-3.19,-3.15,0,*5D
1514116870.12,37341,9.31,73302.5,-2.55,-3.19,-3.15,0,*5C
1514116871.34,37342,9.31,73316.3,-2.55,-3.19,-3.19,0,*53
1514116872.56,37343,9.31,73328.3,-2.55,-3.27,-3.19,0,*5F
1514116873.78,37344,9.31,73320.3,-2.55,-3.27,-3.15,0,*54
1514116874.99,37345,9.31,73314.8,-2.55,-3.19,-3.15,0,*58
1514116876.21,37346,9.31,73304.8,-2.55,-3.15,-3.19,0,*5B
1514116877.43,37347,9.31,73298.5,-2.55,-3.27,-3.15,0,*57
1514116878.62,37348,9.31,73294.8,-2.57,-3.19,-3.19,0,*5B
1514116879.8,37349,9.31,73298.8,-2.57,-3.23,-3.19,0,*53
1514116880.98,37350,9.31,73300.5,-2.57,-3.23,-3.23,0,*52
1514116882.17,37351,9.31,73310.3,-2.57,-3.23,-3.23,0,*53
1514116883.35,37352,9.31,73310.0,-2.57,-3.23,-3.23,0,*50
1514116884.53,37353,9.31,73316.0,-2.57,-3.23,-3.23,0,*51
1514116885.76,37354,9.31,73306.8,-2.59,-3.35,-3.27,0,*5B
1514116886.94,37355,9.31,73314.8,-2.57,-3.19,-3.23,0,*5E
1514116888.13,37356,9.31,73300.0,-2.57,-3.23,-3.19,0,*5D
1514116889.35,37357,9.31,73294.3,-2.55,-3.27,-3.19,0,*5A
1514116890.56,37358,9.31,73300.8,-2.55,-3.19,-3.19,0,*58
1514116891.78,37359,9.31,73304.0,-2.55,-3.19,-3.19,0,*59
1514116892.99,37360,9.31,73302.8,-2.55,-3.19,-3.15,0,*5F
1514116894.21,37361,9.31,73288.3,-2.55,-3.15,-3.19,0,*5E
1514116895.39,37362,9.31,73272.5,-2.57,-3.23,-3.23,0,*53
1514116896.62,37363,9.31,73274.3,-2.59,-3.27,-3.27,0,*5C
1514116897.81,37364,9.31,73272.8,-2.57,-3.23,-3.19,0,*5C
1514116898.99,37365,9.31,73276.0,-2.57,-3.23,-3.19,0,*5D
1514116900.17,37366,9.31,73268.5,-2.57,-3.23,-3.23,0,*57
1514116901.36,37367,9.25,73262.5,-2.57,-3.19,-3.23,0,*5F
1514116902.54,37368,9.31,73252.0,-2.57,-3.23,-3.23,0,*59
1514116903.72,37369,9.31,73260.3,-2.57,-3.23,-3.23,0,*58
1514116904.91,37370,9.31,73280.3,-2.57,-3.19,-3.23,0,*59
1514116906.09,37371,9.31,73284.3,-2.57,-3.23,-3.23,0,*51
1514116907.27,37372,9.31,73286.5,-2.57,-3.23,-3.19,0,*5B
1514116908.45,37373,9.31,73302.0,-2.57,-3.23,-3.23,0,*53
1514116909.63,37374,9.31,73288.5,-2.57,-3.23,-3.23,0,*54
1514116910.85,37375,9.31,73290.3,-2.59,-3.23,-3.27,0,*5F
1514116912.05,37376,9.31,73296.3,-2.57,-3.31,-3.31,0,*56
1514116913.23,37377,9.31,73302.0,-2.57,-3.31,-3.23,0,*54
1514116914.46,37378,9.31,73302.3,-2.59,-3.35,-3.27,0,*55
1514116915.68,37379,9.31,73298.8,-2.59,-3.35,-3.23,0,*50
1514116916.87,37380,9.31,73296.3,-2.57,-3.31,-3.23,0,*5C
1514116918.05,37381,9.31,73290.5,-2.57,-3.23,-3.23,0,*5E
1514116919.27,37382,9.31,73276.0,-2.59,-3.35,-3.23,0,*54
1514116920.45,37383,9.31,73260.5,-2.57,-3.23,-3.19,0,*55
1514116921.65,37384,9.31,73266.3,-2.57,-3.31,-3.31,0,*5B
1514116922.83,37385,9.31,73274.0,-2.57,-3.23,-3.23,0,*5A
1514116924.06,37386,9.31,73272.5,-2.59,-3.27,-3.27,0,*57
1514116925.24,37387,9.31,73278.3,-2.57,-3.23,-3.23,0,*58
1514116926.47,37388,9.31,73274.3,-2.59,-3.27,-3.27,0,*59
1514116927.65,37389,9.31,73278.5,-2.57,-3.31,-3.23,0,*55
1514116928.88,37390,9.31,73284.8,-2.59,-3.35,-3.27,0,*53
1514116930.11,37391,9.31,73278.5,-2.59,-3.27,-3.27,0,*51
1514116931.34,37392,9.31,73288.8,-2.59,-3.35,-3.27,0,*51
1514116932.53,37393,9.31,73290.8,-2.57,-3.31,-3.23,0,*5E
1514116933.72,37394,9.31,73286.3,-2.57,-3.31,-3.23,0,*59
1514116934.9,37395,9.31,73284.0,-2.57,-3.31,-3.23,0,*58
1514116936.1,37396,9.31,73262.8,-2.57,-3.23,-3.27,0,*5C
1514116937.28,37397,9.31,73256.8,-2.57,-3.31,-3.23,0,*5A
1514116938.47,37398,9.31,73250.3,-2.57,-3.31,-3.23,0,*55
1514116939.69,37399,9.31,73240.5,-2.59,-3.35,-3.23,0,*5E
1514116940.87,37400,9.31,73246.0,-2.57,-3.23,-3.23,0,*50
1514116942.06,37401,9.31,73244.5,-2.57,-3.35,-3.23,0,*56
1514116943.24,37402,9.31,73252.3,-2.57,-3.23,-3.23,0,*52
1514116944.47,37403,9.31,73252.0,-2.59,-3.27,-3.35,0,*5E
1514116945.69,37404,9.31,73256.3,-2.59,-3.35,-3.35,0,*5A
1514116946.87,37405,9.31,73258.5,-2.57,-3.23,-3.23,0,*55
1514116948.08,37406,9.31,73234.8,-2.59,-3.23,-3.23,0,*58
1514116949.28,37407,9.31,73242.0,-2.57,-3.27,-3.27,0,*57
1514116950.47,37408,9.31,73244.8,-2.57,-3.31,-3.19,0,*52
1514116951.66,37409,9.31,73218.3,-2.57,-3.23,-3.23,0,*59
1514116952.84,37410,9.31,73234.3,-2.57,-3.27,-3.23,0,*55
1514116954.02,37411,9.31,73244.0,-2.57,-3.23,-3.23,0,*50
1514116955.22,37412,9.31,73254.5,-2.57,-3.27,-3.27,0,*53
1514116956.41,37413,9.31,73276.0,-2.57,-3.31,-3.23,0,*51
1514116957.64,37414,9.31,73280.3,-2.59,-3.27,-3.35,0,*58
1514116958.87,37415,9.31,73292.0,-2.59,-3.35,-3.27,0,*59
1514116960.09,37416,9.31,73300.5,-2.59,-3.27,-3.27,0,*59
1514116961.32,37417,9.31,73304.3,-2.59,-3.27,-3.19,0,*55
1514116962.5,37418,9.31,73306.0,-2.57,-3.23,-3.31,0,*5A
1514116963.73,37419,9.31,73318.5,-2.59,-3.35,-3.27,0,*55
1514116964.95,37420,9.31,73272.0,-2.59,-3.23,-3.27,0,*58
1514116966.18,37421,9.31,73268.5,-2.59,-3.27,-3.27,0,*5D
1514116967.37,37422,9.31,73272.3,-2.57,-3.35,-3.23,0,*57
1514116968.59,37423,9.31,73296.8,-2.59,-3.27,-3.23,0,*5B
1514116969.77,37424,9.31,73298.5,-2.57,-3.19,-3.23,0,*5F
1514116970.99,37425,9.31,73322.3,-2.59,-3.23,-3.27,0,*5D
1514116972.21,37426,9.31,73334.5,-2.59,-3.23,-3.27,0,*5E
1514116973.4,37427,9.31,73338.8,-2.57,-3.19,-3.19,0,*55
1514116974.63,37428,9.31,73330.0,-2.59,-3.27,-3.27,0,*54
1514116975.85,37429,9.31,73316.0,-2.59,-3.27,-3.23,0,*51
1514116977.07,37430,9.31,73290.3,-2.59,-3.23,-3.27,0,*59
1514116978.3,37431,9.31,73298.3,-2.59,-3.27,-3.27,0,*5C
1514116979.53,37432,9.31,73304.3,-2.59,-3.27,-3.27,0,*5F
1514116980.74,37433,9.31,73300.5,-2.59,-3.23,-3.19,0,*57
1514116981.92,37434,9.31,73300.8,-2.57,-3.23,-3.23,0,*57
1514116983.14,37435,9.31,73312.3,-2.59,-3.23,-3.27,0,*5C
1514116984.33,37436,9.31,73308.3,-2.57,-3.23,-3.19,0,*5C
1514116985.56,37437,9.31,73310.3,-2.59,-3.27,-3.27,0,*5A
1514116986.74,37438,9.31,73310.0,-2.57,-3.23,-3.19,0,*52
1514116987.93,37439,9.31,73284.5,-2.57,-3.19,-3.19,0,*5A
1514116989.16,37440,9.31,73236.0,-2.59,-3.27,-3.27,0,*5A
1514116990.34,37441,9.31,73232.0,-2.57,-3.23,-3.23,0,*55
1514116991.53,37442,9.31,73264.5,-2.57,-3.19,-3.19,0,*56
1514116992.71,37443,9.31,73284.8,-2.57,-3.19,-3.23,0,*5E
1514116993.89,37444,9.31,73302.8,-2.57,-3.23,-3.23,0,*50
1514116995.08,37445,9.31,73310.8,-2.57,-3.19,-3.23,0,*58
1514116996.27,37446,9.31,73326.5,-2.57,-3.19,-3.31,0,*58
1514116997.45,37447,9.31,73326.3,-2.57,-3.23,-3.19,0,*5A
1514116998.63,37448,9.31,73310.3,-2.57,-3.23,-3.23,0,*5C
1514116999.86,37449,9.31,73306.5,-2.59,-3.27,-3.27,0,*53
1514117001.04,37450,9.31,73306.5,-2.57,-3.23,-3.23,0,*55
1514117002.22,37451,9.31,73308.0,-2.57,-3.23,-3.23,0,*54
1514117003.42,37452,9.31,73300.3,-2.57,-3.27,-3.27,0,*57
1514117004.6,37453,9.31,73320.0,-2.57,-3.23,-3.23,0,*56
1514117005.83,37454,9.31,73328.3,-2.59,-3.27,-3.35,0,*5C
1514117007.01,37455,9.31,73330.0,-2.57,-3.23,-3.23,0,*50
1514117008.23,37456,9.31,73328.5,-2.59,-3.27,-3.23,0,*59
1514117009.41,37457,9.31,73330.3,-2.57,-3.19,-3.23,0,*5B
1514117010.6,37458,9.31,73334.3,-2.57,-3.19,-3.23,0,*54
1514117011.78,37459,9.31,73342.5,-2.57,-3.23,-3.23,0,*5C
1514117013.0,37460,9.31,73318.3,-2.59,-3.27,-3.23,0,*5C
1514117014.21,37461,9.31,73314.3,-2.59,-3.23,-3.23,0,*59
1514117015.43,37462,9.31,73328.8,-2.59,-3.27,-3.23,0,*5E
1514117016.66,37463,9.31,73326.0,-2.59,-3.27,-3.27,0,*5B
1514117017.88,37464,9.31,73330.0,-2.59,-3.27,-3.27,0,*5C
1514117019.1,37465,9.31,73324.5,-2.59,-3.35,-3.23,0,*5A
1514117020.33,37466,9.31,73328.3,-2.59,-3.35,-3.27,0,*5D
1514117021.56,37467,9.31,73322.5,-2.59,-3.27,-3.27,0,*5F
1514117022.79,37468,9.31,73324.3,-2.59,-3.35,-3.27,0,*53
1514117023.98,37469,9.31,73330.8,-2.57,-3.31,-3.23,0,*5C
1514117025.2,37470,9.31,73322.0,-2.59,-3.35,-3.27,0,*5A
1514117026.43,37471,9.31,73304.5,-2.59,-3.27,-3.35,0,*5B
1514117027.65,37472,9.31,73300.0,-2.59,-3.27,-3.23,0,*5F
1514117028.87,37473,9.31,73296.8,-2.59,-3.27,-3.35,0,*59
1514117030.1,37474,9.31,73306.0,-2.59,-3.35,-3.35,0,*5D
1514117031.33,37475,9.31,73328.0,-2.59,-3.27,-3.27,0,*5C
1514117032.53,37476,9.25,73302.0,-2.57,-3.31,-3.27,0,*56
1514117033.75,37477,9.31,73304.3,-2.59,-3.35,-3.27,0,*5D
1514117034.93,37478,9.31,73340.3,-2.57,-3.23,-3.23,0,*5F
1514117036.16,37479,9.31,73366.0,-2.59,-3.27,-3.27,0,*50
1514117037.35,37480,9.31,73344.0,-2.57,-3.23,-3.23,0,*58
1514117038.53,37481,9.31,73348.3,-2.57,-3.23,-3.23,0,*59
1514117039.74,37482,9.31,73342.8,-2.59,-3.23,-3.23,0,*54
1514117040.97,37483,9.31,73356.8,-2.59,-3.35,-3.27,0,*56
1514117042.19,37484,9.31,73358.3,-2.59,-3.35,-3.27,0,*51
1514117043.41,37485,9.31,73348.8,-2.59,-3.27,-3.23,0,*57
1514117044.63,37486,9.31,73344.3,-2.59,-3.23,-3.27,0,*54
1514117045.82,37487,9.31,73316.8,-2.61,-3.27,-3.23,0,*5E
1514117047.05,37488,9.31,73320.8,-2.59,-3.27,-3.27,0,*5E
1514117048.27,37489,9.31,73352.5,-2.59,-3.35,-3.23,0,*58
1514117049.5,37490,9.31,73332.5,-2.59,-3.27,-3.35,0,*54
1514117050.68,37491,9.31,73308.0,-2.57,-3.23,-3.19,0,*51
1514117051.91,37492,9.31,73342.5,-2.59,-3.27,-3.27,0,*55
1514117053.13,37493,9.31,73354.0,-2.59,-3.27,-3.23,0,*50
1514117054.35,37494,9.31,73338.0,-2.59,-3.23,-3.27,0,*57
1514117055.58,37495,9.31,73358.8,-2.59,-3.27,-3.27,0,*52
1514117056.79,37496,9.31,73366.5,-2.59,-3.23,-3.23,0,*51
1514117058.01,37497,9.31,73342.8,-2.59,-3.35,-3.23,0,*57
1514117059.23,37498,9.31,73338.8,-2.59,-3.23,-3.27,0,*5B
1514117060.46,37499,9.31,73334.5,-2.59,-3.27,-3.27,0,*5E
1514117061.67,37500,9.31,73328.3,-2.59,-3.27,-3.23,0,*5B
1514117062.89,37501,9.31,73300.3,-2.59,-3.27,-3.23,0,*5A
1514117064.1,37502,9.31,73290.3,-2.59,-3.23,-3.23,0,*5D
1514117065.32,37503,9.31,73302.3,-2.59,-3.27,-3.23,0,*58
1514117066.5,37504,9.31,73308.0,-2.57,-3.23,-3.23,0,*55
1514117067.72,37505,9.31,73320.3,-2.59,-3.27,-3.23,0,*5E
1514117068.9,37506,9.31,73334.5,-2.57,-3.23,-3.23,0,*57
1514117070.13,37507,9.31,73336.0,-2.59,-3.23,-3.27,0,*5C
1514117071.35,37508,9.31,73312.8,-2.59,-3.27,-3.27,0,*57
1514117072.58,37509,9.31,73324.0,-2.59,-3.27,-3.27,0,*56
1514117073.81,37510,9.31,73322.5,-2.59,-3.27,-3.27,0,*5E
1514117075.02,37511,9.31,73318.0,-2.59,-3.23,-3.23,0,*5F
1514117076.25,37512,9.31,73304.0,-2.59,-3.27,-3.27,0,*5C
1514117077.47,37513,9.31,73258.3,-2.59,-3.27,-3.23,0,*59
1514117078.66,37514,9.31,73316.3,-2.57,-3.23,-3.27,0,*50
1514117079.89,37515,9.31,73330.3,-2.59,-3.35,-3.27,0,*58
1514117081.11,37516,9.31,73328.0,-2.59,-3.35,-3.23,0,*5F
1514117082.33,37517,9.31,73346.0,-2.59,-3.27,-3.27,0,*59
1514117083.55,37518,9.31,73340.3,-2.59,-3.27,-3.23,0,*52
1514117084.78,37519,9.31,73318.5,-2.59,-3.27,-3.27,0,*57
1514117086.0,37520,9.31,73306.5,-2.59,-3.27,-3.23,0,*59
1514117087.22,37521,9.31,73294.0,-2.59,-3.23,-3.27,0,*58
1514117088.44,37522,9.31,73280.8,-2.59,-3.23,-3.27,0,*5B
1514117089.66,37523,9.31,73282.5,-2.59,-3.27,-3.23,0,*5A
1514117090.88,37524,9.31,73290.3,-2.59,-3.23,-3.27,0,*5D
1514117092.1,37525,9.31,73292.0,-2.59,-3.27,-3.23,0,*5C
1514117093.33,37526,9.31,73296.5,-2.59,-3.27,-3.27,0,*5B
1514117094.56,37527,9.31,73302.0,-2.59,-3.35,-3.27,0,*59
1514117095.78,37528,9.31,73310.3,-2.59,-3.27,-3.23,0,*51
1514117096.99,37529,9.31,73310.3,-2.59,-3.27,-3.23,0,*50
1514117098.18,37530,9.31,73320.3,-2.57,-3.23,-3.19,0,*5B
1514117099.4,37531,9.31,73326.0,-2.59,-3.27,-3.23,0,*59
1514117100.62,37532,9.31,73320.5,-2.59,-3.35,-3.27,0,*5D
1514117101.85,37533,9.31,73318.5,-2.59,-3.27,-3.27,0,*5F
1514117103.08,37534,9.31,73324.3,-2.59,-3.27,-3.27,0,*58
1514117104.31,37535,9.31,73324.0,-2.59,-3.27,-3.27,0,*59
1514117105.51,37536,9.31,73346.8,-2.61,-3.27,-3.27,0,*51
1514117106.74,37537,9.31,73350.5,-2.59,-3.27,-3.27,0,*5B
1514117107.96,37538,9.31,73360.8,-2.59,-3.27,-3.23,0,*50
1514117109.18,37539,9.31,73354.8,-2.59,-3.27,-3.23,0,*51
1514117110.41,37540,9.31,73364.8,-2.59,-3.27,-3.27,0,*5B
1514117111.6,37541,9.31,73356.3,-2.61,-3.23,-3.27,0,*55
1514117112.83,37542,9.31,73360.8,-2.59,-3.27,-3.27,0,*59
1514117114.05,37543,9.31,73360.0,-2.59,-3.27,-3.23,0,*5C
1514117115.23,37544,9.31,73358.5,-2.57,-3.23,-3.19,0,*58
1514117116.46,37545,9.31,73364.0,-2.59,-3.27,-3.27,0,*5E
1514117117.69,37546,9.31,73360.8,-2.59,-3.27,-3.27,0,*5D
1514117118.91,37547,9.31,73350.8,-2.59,-3.27,-3.23,0,*58
1514117120.13,37548,9.31,73352.3,-2.59,-3.27,-3.23,0,*57
1514117121.36,37549,9.31,73346.8,-2.59,-3.27,-3.27,0,*52
1514117122.58,37550,9.31,73338.3,-2.59,-3.23,-3.27,0,*5E
1514117123.8,37551,9.31,73338.3,-2.59,-3.27,-3.23,0,*5F
1514117125.01,37552,9.31,73346.8,-2.59,-3.23,-3.23,0,*58
1514117126.22,37553,9.31,73352.0,-2.59,-3.23,-3.23,0,*59
1514117127.43,37554,9.31,73366.0,-2.59,-3.23,-3.23,0,*5E
1514117128.64,37555,9.31,73366.3,-2.59,-3.23,-3.23,0,*5F
1514117129.85,37556,9.31,73362.0,-2.59,-3.23,-3.23,0,*5C
1514117131.04,37557,9.31,73330.8,-2.61,-3.27,-3.23,0,*52
1514117132.25,37558,9.31,73344.5,-2.61,-3.27,-3.27,0,*59
1514117133.45,37559,9.31,73338.5,-2.61,-3.27,-3.27,0,*58
1514117134.66,37560,9.31,73338.3,-2.59,-3.23,-3.23,0,*59
1514117135.87,37561,9.31,73320.8,-2.59,-3.23,-3.23,0,*58
1514117137.09,37562,9.31,73316.5,-2.59,-3.27,-3.23,0,*5F
1514117138.3,37563,9.31,73308.0,-2.59,-3.23,-3.23,0,*5A
1514117139.52,37564,9.31,73318.8,-2.59,-3.27,-3.23,0,*59
1514117140.7,37565,9.31,73322.5,-2.57,-3.19,-3.19,0,*52
1514117141.92,37566,9.31,73328.8,-2.59,-3.27,-3.23,0,*5B
1514117143.14,37567,9.31,73330.0,-2.59,-3.27,-3.23,0,*5A
1514117144.36,37568,9.31,73312.8,-2.59,-3.27,-3.15,0,*50
1514117145.56,37569,9.31,73308.0,-2.57,-3.23,-3.27,0,*5A
1514117146.77,37570,9.31,73304.3,-2.59,-3.27,-3.23,0,*5C
1514117147.98,37571,9.31,73302.0,-2.59,-3.23,-3.23,0,*59
1514117149.2,37572,9.31,73312.8,-2.59,-3.23,-3.23,0,*5A
1514117150.41,37573,9.31,73322.3,-2.59,-3.23,-3.23,0,*5B
1514117151.62,37574,9.31,73310.3,-2.59,-3.23,-3.23,0,*5C
1514117152.84,37575,9.31,73320.0,-2.59,-3.27,-3.23,0,*59
1514117154.06,37576,9.31,73326.3,-2.59,-3.27,-3.15,0,*5F
1514117155.25,37577,9.31,73324.5,-2.57,-3.19,-3.19,0,*51
1514117156.46,37578,9.31,73328.0,-2.59,-3.23,-3.23,0,*50
1514117157.68,37579,9.31,73328.8,-2.59,-3.27,-3.23,0,*55
1514117158.89,37580,9.31,73320.3,-2.59,-3.27,-3.23,0,*53
1514117160.11,37581,9.31,73288.8,-2.59,-3.23,-3.15,0,*53
1514117161.32,37582,9.31,73270.0,-2.59,-3.23,-3.23,0,*55
1514117162.5,37583,9.31,73250.8,-2.57,-3.23,-3.19,0,*53
1514117163.71,37584,9.31,73242.3,-2.59,-3.23,-3.23,0,*53
1514117164.93,37585,9.31,73282.3,-2.59,-3.27,-3.23,0,*56
1514117166.12,37586,9.31,73300.3,-2.57,-3.19,-3.23,0,*56
1514117167.35,37587,9.31,73312.3,-2.59,-3.27,-3.27,0,*50
1514117168.57,37588,9.31,73314.3,-2.59,-3.27,-3.23,0,*5B
1514117169.78,37589,9.31,73302.0,-2.59,-3.23,-3.23,0,*5E
1514117170.99,37590,9.31,73294.8,-2.59,-3.27,-3.23,0,*52
1514117172.21,37591,9.31,73286.8,-2.59,-3.27,-3.23,0,*53
1514117173.4,37592,9.31,73286.8,-2.57,-3.23,-3.19,0,*53
1514117174.62,37593,9.31,73292.5,-2.59,-3.27,-3.23,0,*51
1514117175.84,37594,9.31,73296.3,-2.59,-3.23,-3.27,0,*56
1514117177.02,37595,9.31,73298.0,-2.57,-3.23,-3.23,0,*5D
1514117178.24,37596,9.31,73300.8,-2.59,-3.27,-3.23,0,*54
1514117179.43,37597,9.31,73306.0,-2.61,-3.27,-3.23,0,*5E
1514117180.62,37598,9.31,73306.8,-2.61,-3.27,-3.23,0,*51
1514117181.83,37599,9.31,73306.8,-2.59,-3.23,-3.23,0,*5F
1514117183.02,37600,9.31,73312.3,-2.57,-3.19,-3.23,0,*5B
1514117184.21,37601,9.31,73322.5,-2.57,-3.19,-3.19,0,*53
1514117185.43,37602,9.31,73308.5,-2.59,-3.23,-3.27,0,*5A
1514117186.64,37603,9.31,73312.0,-2.59,-3.27,-3.23,0,*5B
1514117187.87,37604,9.31,73310.8,-2.59,-3.27,-3.35,0,*5B
1514117189.09,37605,9.31,73316.8,-2.59,-3.27,-3.23,0,*5D
1514117190.31,37606,9.31,73326.8,-2.59,-3.27,-3.23,0,*5E
1514117191.53,37607,9.31,73334.5,-2.59,-3.23,-3.27,0,*5F
1514117192.75,37608,9.31,73328.0,-2.59,-3.27,-3.15,0,*55
1514117193.98,37609,9.31,73334.3,-2.59,-3.27,-3.27,0,*55
1514117195.2,37610,9.31,73330.0,-2.59,-3.27,-3.23,0,*59
1514117196.42,37611,9.31,73326.3,-2.59,-3.27,-3.23,0,*58
1514117197.63,37612,9.31,73336.5,-2.59,-3.27,-3.23,0,*5B
1514117198.82,37613,9.31,73342.3,-2.57,-3.23,-3.23,0,*50
1514117200.03,37614,9.31,73346.8,-2.59,-3.27,-3.23,0,*5D
1514117201.25,37615,9.31,73354.3,-2.59,-3.23,-3.23,0,*58
1514117202.46,37616,9.31,73350.5,-2.59,-3.27,-3.23,0,*5F
1514117203.69,37617,9.31,73348.3,-2.59,-3.27,-3.27,0,*5A
1514117204.91,37618,9.31,73342.3,-2.59,-3.27,-3.23,0,*51
1514117206.13,37619,9.31,73330.3,-2.59,-3.27,-3.23,0,*50
1514117207.35,37620,9.31,73332.3,-2.59,-3.27,-3.23,0,*5A
1514117208.57,37621,9.31,73330.0,-2.59,-3.23,-3.27,0,*5B
1514117209.79,37622,9.31,73308.3,-2.59,-3.27,-3.23,0,*58
1514117211.0,37623,9.31,73304.5,-2.59,-3.23,-3.23,0,*5D
1514117212.23,37624,9.31,73308.0,-2.59,-3.27,-3.27,0,*5A
1514117213.45,37625,9.31,73308.8,-2.59,-3.27,-3.35,0,*58
1514117214.67,37626,9.31,73304.8,-2.59,-3.23,-3.27,0,*5C
1514117215.89,37627,9.31,73308.3,-2.59,-3.27,-3.23,0,*5D
1514117217.1,37628,9.31,73306.5,-2.59,-3.23,-3.23,0,*56
1514117218.32,37629,9.31,73306.8,-2.59,-3.35,-3.23,0,*50
1514117219.53,37630,9.31,73316.5,-2.59,-3.23,-3.23,0,*5F
1514117220.75,37631,9.31,73324.8,-2.59,-3.23,-3.27,0,*5A
1514117221.96,37632,9.31,73336.0,-2.59,-3.23,-3.23,0,*5D
1514117223.18,37633,9.31,73340.3,-2.59,-3.23,-3.23,0,*5C
1514117224.39,37634,9.31,73334.3,-2.59,-3.27,-3.23,0,*5F
1514117225.6,37635,9.31,73332.5,-2.61,-3.27,-3.27,0,*51
1514117226.81,37636,9.31,73342.8,-2.59,-3.27,-3.23,0,*5D
1514117228.03,37637,9.31,73324.3,-2.59,-3.27,-3.23,0,*5C
1514117229.26,37638,9.31,73318.5,-2.59,-3.27,-3.27,0,*57
1514117230.47,37639,9.31,73320.3,-2.59,-3.23,-3.23,0,*56
1514117231.68,37640,9.31,73324.0,-2.59,-3.23,-3.23,0,*58
1514117232.9,37641,9.31,73312.0,-2.59,-3.27,-3.23,0,*5D
1514117234.08,37642,9.31,73304.5,-2.57,-3.23,-3.23,0,*54
1514117235.3,37643,9.31,73306.0,-2.59,-3.27,-3.23,0,*5F
1514117236.52,37644,9.31,73306.5,-2.59,-3.27,-3.23,0,*58
1514117237.73,37645,9.31,73298.3,-2.59,-3.23,-3.23,0,*5D
1514117238.95,37646,9.31,73300.3,-2.59,-3.15,-3.15,0,*5E
1514117240.17,37647,9.31,73304.5,-2.59,-3.23,-3.15,0,*5A
1514117241.39,37648,9.31,73288.8,-2.59,-3.23,-3.27,0,*54
1514117242.61,37649,9.31,73290.0,-2.59,-3.27,-3.23,0,*55
1514117243.82,37650,9.31,73284.0,-2.59,-3.23,-3.23,0,*59
1514117245.03,37651,9.31,73268.5,-2.59,-3.27,-3.23,0,*5C
1514117246.23,37652,9.31,73252.3,-2.61,-3.27,-3.23,0,*54
1514117247.44,37653,9.31,73258.0,-2.59,-3.23,-3.23,0,*5A
1514117248.65,37654,9.31,73268.8,-2.59,-3.23,-3.23,0,*5D
1514117249.86,37655,9.31,73274.0,-2.59,-3.23,-3.23,0,*5C
1514117251.08,37656,9.31,73294.3,-2.59,-3.27,-3.23,0,*5B
1514117252.3,37657,9.31,73268.0,-2.59,-3.27,-3.15,0,*5F
1514117253.49,37658,9.31,73264.5,-2.57,-3.19,-3.19,0,*5F
1514117254.7,37659,9.31,73262.8,-2.59,-3.23,-3.23,0,*50
1514117255.91,37660,9.31,73270.3,-2.59,-3.23,-3.23,0,*5A
1514117257.12,37661,9.31,73274.8,-2.59,-3.23,-3.23,0,*5B
1514117258.33,37662,9.31,73282.8,-2.59,-3.23,-3.23,0,*58
1514117259.54,37663,9.31,73294.0,-2.59,-3.23,-3.23,0,*59
1514117260.73,37664,9.31,73290.8,-2.57,-3.23,-3.19,0,*59
1514117261.91,37665,9.31,73284.0,-2.57,-3.23,-3.19,0,*58
1514117263.12,37666,9.31,73298.5,-2.59,-3.23,-3.23,0,*5C
1514117264.34,37667,9.31,73348.3,-2.59,-3.23,-3.11,0,*5C
1514117265.53,37668,9.31,73344.3,-2.57,-3.23,-3.19,0,*55
1514117266.71,37669,9.31,73342.8,-2.57,-3.19,-3.19,0,*5D
1514117267.94,37670,9.31,73340.5,-2.59,-3.27,-3.27,0,*5B
1514117269.15,37671,9.31,73340.8,-2.59,-3.23,-3.23,0,*5A
1514117270.37,37672,9.31,73346.3,-2.59,-3.15,-3.23,0,*5C
1514117271.59,37673,9.31,73346.3,-2.59,-3.27,-3.23,0,*5C
1514117272.78,37674,9.31,73350.0,-2.57,-3.19,-3.19,0,*51
1514117273.99,37675,9.31,73340.8,-2.59,-3.23,-3.23,0,*5E
1514117275.2,37676,9.31,73336.3,-2.59,-3.23,-3.23,0,*5D
1514117276.41,37677,9.31,73336.8,-2.59,-3.23,-3.23,0,*5C
1514117277.6,37678,9.31,73350.5,-2.57,-3.19,-3.19,0,*5D
1514117278.78,37679,9.31,73350.8,-2.57,-3.23,-3.19,0,*55
1514117279.97,37680,9.31,73352.8,-2.57,-3.23,-3.19,0,*53
1514117281.18,37681,9.31,73340.5,-2.59,-3.27,-3.23,0,*51
1514117282.4,37682,9.31,73332.5,-2.59,-3.23,-3.23,0,*56
1514117283.58,37683,9.31,73330.3,-2.57,-3.19,-3.19,0,*59
1514117284.8,37684,9.31,73324.5,-2.59,-3.27,-3.23,0,*54
1514117286.02,37685,9.31,73316.3,-2.59,-3.15,-3.15,0,*51
1514117287.25,37686,9.31,73320.0,-2.59,-3.27,-3.15,0,*53
1514117288.46,37687,9.31,73326.3,-2.59,-3.23,-3.23,0,*53
1514117289.64,37688,9.31,73326.8,-2.57,-3.19,-3.19,0,*52
1514117290.85,37689,9.31,73334.8,-2.59,-3.23,-3.23,0,*5D
1514117292.07,37690,9.31,73330.3,-2.59,-3.23,-3.23,0,*55
1514117293.28,37691,9.31,73326.8,-2.59,-3.23,-3.11,0,*55
1514117294.5,37692,9.31,73332.8,-2.59,-3.27,-3.23,0,*53
1514117295.73,37693,9.31,73326.0,-2.59,-3.27,-3.27,0,*56
1514117296.95,37694,9.31,73312.8,-2.59,-3.27,-3.23,0,*55
1514117298.16,37695,9.31,73302.3,-2.59,-3.11,-3.23,0,*51
1514117299.38,37696,9.31,73298.5,-2.59,-3.23,-3.15,0,*56
1514117300.6,37697,9.31,73298.8,-2.59,-3.15,-3.23,0,*57
1514117301.81,37698,9.31,73300.8,-2.59,-3.23,-3.23,0,*5D
1514117303.02,37699,9.31,73290.3,-2.59,-3.27,-3.23,0,*58
1514117304.24,37700,9.31,73284.8,-2.59,-3.15,-3.23,0,*58
1514117305.43,37701,9.31,73282.0,-2.57,-3.19,-3.11,0,*5A
1514117306.65,37702,9.31,73276.5,-2.59,-3.23,-3.15,0,*5A
1514117307.87,37703,9.31,73262.5,-2.59,-3.27,-3.23,0,*5A